Location: Drocourt
(49.0571°N, 1.7669°E)
Time: 18:25:49
(UTC+00:00)

Cosmos 1943 Rocket - Pass Details

Date: 09 February 2023
Orbit: 811 x 844 km, 71.0° (Epoch: 26 March)

Event Time Altitude Azimuth Distance (km) Brightness Sun altitude
Rises 20:23:24 0° 328° (NNW) 3,413 6.0 -33.0°
Reaches altitude 10° 20:25:54 10° 324° (NW) 2,473 5.2 -33.4°
Enters shadow 20:30:15 46° 288° (WNW) 1,129 3.1 -34.1°
